Tabellarische Ansicht des 1.9.2021


Die einzelnen Werte des Tages

Uhrzeit Temperatur Luftdruck Luftfeuchte Wind Hi-Wind Taupunkt THW Index Wind Chill Heat Index Solar- strahlung Regen

00:00

14.3 C

1022.5 hpa

84 %

0.0 km/h aus 117

0.0 km/h aus ---

11.6 C

14.2 C

14.3 C

14.2 C

0 W/m

0.00 mm

00:05

14.2 C

1022.5 hpa

84 %

0.0 km/h aus 113

0.0 km/h aus ---

11.5 C

14.1 C

14.2 C

14.1 C

0 W/m

0.00 mm

00:10

14.1 C

1022.5 hpa

84 %

0.0 km/h aus 116

0.0 km/h aus ---

11.4 C

14.0 C

14.1 C

14.0 C

0 W/m

0.00 mm

00:15

13.9 C

1022.6 hpa

84 %

0.0 km/h aus 116

0.0 km/h aus ---

11.3 C

13.9 C

13.9 C

13.9 C

0 W/m

0.00 mm

00:20

13.8 C

1022.6 hpa

84 %

0.0 km/h aus 116

0.0 km/h aus ---

11.2 C

13.8 C

13.8 C

13.8 C

0 W/m

0.00 mm

00:25

13.7 C

1022.6 hpa

84 %

0.0 km/h aus 117

0.0 km/h aus ---

11.1 C

13.7 C

13.7 C

13.7 C

0 W/m

0.00 mm

00:30

13.6 C

1022.6 hpa

84 %

0.0 km/h aus 113

0.0 km/h aus ---

11.0 C

13.6 C

13.6 C

13.6 C

0 W/m

0.00 mm

00:35

13.5 C

1022.6 hpa

84 %

0.0 km/h aus 116

0.0 km/h aus ---

10.8 C

13.4 C

13.5 C

13.4 C

0 W/m

0.00 mm

00:40

13.4 C

1022.6 hpa

84 %

0.0 km/h aus 117

0.0 km/h aus ---

10.7 C

13.3 C

13.4 C

13.3 C

0 W/m

0.00 mm

00:45

13.3 C

1022.7 hpa

84 %

0.0 km/h aus 118

0.0 km/h aus ---

10.6 C

13.2 C

13.3 C

13.2 C

0 W/m

0.00 mm

00:50

13.2 C

1022.7 hpa

84 %

0.0 km/h aus 116

0.0 km/h aus ---

10.5 C

13.1 C

13.2 C

13.1 C

0 W/m

0.00 mm

00:55

13.1 C

1022.7 hpa

84 %

0.0 km/h aus 113

0.0 km/h aus ---

10.4 C

13.0 C

13.1 C

13.0 C

0 W/m

0.00 mm

01:00

13.0 C

1022.8 hpa

84 %

0.0 km/h aus 115

0.0 km/h aus ---

10.4 C

12.9 C

13.0 C

12.9 C

0 W/m

0.00 mm

01:05

12.9 C

1022.8 hpa

84 %

0.0 km/h aus 117

0.0 km/h aus ---

10.2 C

12.8 C

12.9 C

12.8 C

0 W/m

0.00 mm

01:10

12.9 C

1022.8 hpa

85 %

0.0 km/h aus 116

0.0 km/h aus ---

10.5 C

12.9 C

12.9 C

12.9 C

0 W/m

0.00 mm

01:15

12.9 C

1023.0 hpa

86 %

0.0 km/h aus 117

0.0 km/h aus ---

10.7 C

12.9 C

12.9 C

12.9 C

0 W/m

0.00 mm

01:20

13.1 C

1023.0 hpa

86 %

0.0 km/h aus 115

0.0 km/h aus ---

10.8 C

13.0 C

13.1 C

13.0 C

0 W/m

0.00 mm

01:25

13.1 C

1023.0 hpa

87 %

0.0 km/h aus 114

0.0 km/h aus ---

10.9 C

13.1 C

13.1 C

13.1 C

0 W/m

0.00 mm

01:30

13.2 C

1023.2 hpa

87 %

0.0 km/h aus 117

0.0 km/h aus ---

11.0 C

13.2 C

13.2 C

13.2 C

0 W/m

0.00 mm

01:35

13.3 C

1023.2 hpa

87 %

0.0 km/h aus 117

0.0 km/h aus ---

11.2 C

13.3 C

13.3 C

13.3 C

0 W/m

0.00 mm

01:40

13.3 C

1023.2 hpa

88 %

0.0 km/h aus 117

0.0 km/h aus ---

11.4 C

13.3 C

13.3 C

13.3 C

0 W/m

0.00 mm

01:45

13.4 C

1023.1 hpa

88 %

0.0 km/h aus 114

0.0 km/h aus ---

11.5 C

13.4 C

13.4 C

13.4 C

0 W/m

0.00 mm

01:50

13.7 C

1023.1 hpa

89 %

0.0 km/h aus 115

0.0 km/h aus ---

11.9 C

13.7 C

13.7 C

13.7 C

0 W/m

0.00 mm

01:55

13.8 C

1023.1 hpa

89 %

0.0 km/h aus 115

0.0 km/h aus ---

12.1 C

13.9 C

13.8 C

13.9 C

0 W/m

0.00 mm

02:00

14.0 C

1023.1 hpa

90 %

0.0 km/h aus 117

0.0 km/h aus ---

12.4 C

14.1 C

14.0 C

14.1 C

0 W/m

0.00 mm

02:05

14.1 C

1023.1 hpa

90 %

0.0 km/h aus 117

0.0 km/h aus ---

12.5 C

14.2 C

14.1 C

14.2 C

0 W/m

0.00 mm

02:10

14.2 C

1023.1 hpa

90 %

1.6 km/h aus 114

8.0 km/h aus WNW

12.5 C

14.2 C

14.2 C

14.2 C

0 W/m

0.00 mm

02:15

14.2 C

1023.1 hpa

90 %

1.6 km/h aus 115

4.8 km/h aus WNW

12.5 C

14.2 C

14.2 C

14.2 C

0 W/m

0.00 mm

02:20

14.2 C

1023.1 hpa

90 %

0.0 km/h aus 117

3.2 km/h aus WNW

12.5 C

14.2 C

14.2 C

14.2 C

0 W/m

0.00 mm

02:25

14.2 C

1023.1 hpa

90 %

0.0 km/h aus 117

3.2 km/h aus WNW

12.5 C

14.2 C

14.2 C

14.2 C

0 W/m

0.00 mm

02:30

14.2 C

1023.1 hpa

90 %

0.0 km/h aus 117

3.2 km/h aus WNW

12.5 C

14.2 C

14.2 C

14.2 C

0 W/m

0.00 mm

02:35

14.1 C

1023.1 hpa

90 %

0.0 km/h aus 114

0.0 km/h aus ---

12.5 C

14.2 C

14.1 C

14.2 C

0 W/m

0.00 mm

02:40

14.1 C

1023.1 hpa

90 %

1.6 km/h aus 115

6.4 km/h aus WNW

12.4 C

14.1 C

14.1 C

14.1 C

0 W/m

0.00 mm

02:45

14.1 C

1023.1 hpa

90 %

0.0 km/h aus 116

3.2 km/h aus WNW

12.4 C

14.1 C

14.1 C

14.1 C

0 W/m

0.00 mm

02:50

14.1 C

1023.1 hpa

90 %

0.0 km/h aus 117

0.0 km/h aus ---

12.4 C

14.1 C

14.1 C

14.1 C

0 W/m

0.00 mm

02:55

14.0 C

1023.1 hpa

90 %

0.0 km/h aus 118

0.0 km/h aus ---

12.4 C

14.1 C

14.0 C

14.1 C

0 W/m

0.00 mm

03:00

14.0 C

1022.8 hpa

90 %

1.6 km/h aus 114

4.8 km/h aus WNW

12.4 C

14.1 C

14.0 C

14.1 C

0 W/m

0.00 mm

03:05

14.0 C

1022.8 hpa

90 %

3.2 km/h aus 114

4.8 km/h aus WNW

12.4 C

14.1 C

14.0 C

14.1 C

0 W/m

0.00 mm

03:10

14.0 C

1022.8 hpa

90 %

1.6 km/h aus 117

4.8 km/h aus WNW

12.4 C

14.1 C

14.0 C

14.1 C

0 W/m

0.00 mm

03:15

13.9 C

1023.0 hpa

90 %

0.0 km/h aus 117

1.6 km/h aus WNW

12.3 C

14.0 C

13.9 C

14.0 C

0 W/m

0.00 mm

03:20

13.9 C

1023.0 hpa

90 %

0.0 km/h aus 117

0.0 km/h aus ---

12.3 C

14.0 C

13.9 C

14.0 C

0 W/m

0.00 mm

03:25

13.9 C

1023.0 hpa

90 %

0.0 km/h aus 113

0.0 km/h aus ---

12.3 C

14.0 C

13.9 C

14.0 C

0 W/m

0.00 mm

03:30

13.9 C

1023.0 hpa

90 %

0.0 km/h aus 116

1.6 km/h aus WNW

12.3 C

14.0 C

13.9 C

14.0 C

0 W/m

0.00 mm

03:35

13.9 C

1023.0 hpa

90 %

0.0 km/h aus 116

3.2 km/h aus WNW

12.3 C

14.0 C

13.9 C

14.0 C

0 W/m

0.00 mm

03:40

13.9 C

1023.0 hpa

90 %

1.6 km/h aus 117

3.2 km/h aus WNW

12.3 C

14.0 C

13.9 C

14.0 C

0 W/m

0.00 mm

03:45

13.9 C

1023.1 hpa

91 %

1.6 km/h aus 117

3.2 km/h aus WNW

12.5 C

14.0 C

13.9 C

14.0 C

0 W/m

0.00 mm

03:50

13.9 C

1023.1 hpa

91 %

1.6 km/h aus 114

3.2 km/h aus WNW

12.5 C

14.0 C

13.9 C

14.0 C

0 W/m

0.00 mm

03:55

13.9 C

1023.1 hpa

91 %

0.0 km/h aus 116

3.2 km/h aus WNW

12.5 C

14.0 C

13.9 C

14.0 C

0 W/m

0.00 mm

04:00

13.9 C

1023.2 hpa

90 %

0.0 km/h aus 117

3.2 km/h aus WNW

12.3 C

14.0 C

13.9 C

14.0 C

0 W/m

0.00 mm

04:05

13.9 C

1023.2 hpa

90 %

1.6 km/h aus 117

6.4 km/h aus WNW

12.3 C

14.0 C

13.9 C

14.0 C

0 W/m

0.00 mm

04:10

13.9 C

1023.2 hpa

90 %

1.6 km/h aus 117

4.8 km/h aus WNW

12.3 C

14.0 C

13.9 C

14.0 C

0 W/m

0.00 mm

04:15

13.9 C

1023.1 hpa

90 %

1.6 km/h aus 114

4.8 km/h aus WNW

12.3 C

14.0 C

13.9 C

14.0 C

0 W/m

0.00 mm

04:20

13.9 C

1023.1 hpa

90 %

0.0 km/h aus 116

1.6 km/h aus WNW

12.3 C

14.0 C

13.9 C

14.0 C

0 W/m

0.00 mm

04:25

13.9 C

1023.1 hpa

91 %

1.6 km/h aus 117

4.8 km/h aus WNW

12.5 C

14.0 C

13.9 C

14.0 C

0 W/m

0.00 mm

04:30

13.9 C

1023.2 hpa

91 %

0.0 km/h aus 117

4.8 km/h aus WNW

12.5 C

14.0 C

13.9 C

14.0 C

0 W/m

0.00 mm

04:35

13.9 C

1023.2 hpa

91 %

0.0 km/h aus 117

0.0 km/h aus ---

12.5 C

14.0 C

13.9 C

14.0 C

0 W/m

0.00 mm

04:40

13.9 C

1023.2 hpa

90 %

0.0 km/h aus 114

0.0 km/h aus ---

12.3 C

14.0 C

13.9 C

14.0 C

0 W/m

0.00 mm

04:45

13.9 C

1023.2 hpa

90 %

0.0 km/h aus 116

0.0 km/h aus ---

12.3 C

13.9 C

13.9 C

13.9 C

0 W/m

0.00 mm

04:50

13.9 C

1023.2 hpa

90 %

1.6 km/h aus 116

4.8 km/h aus WNW

12.3 C

13.9 C

13.9 C

13.9 C

0 W/m

0.00 mm

04:55

13.9 C

1023.2 hpa

90 %

1.6 km/h aus 117

4.8 km/h aus WNW

12.3 C

13.9 C

13.9 C

13.9 C

0 W/m

0.00 mm

05:00

13.8 C

1023.1 hpa

90 %

0.0 km/h aus 117

1.6 km/h aus WNW

12.2 C

13.9 C

13.8 C

13.9 C

0 W/m

0.00 mm

05:05

13.8 C

1023.1 hpa

90 %

1.6 km/h aus 115

3.2 km/h aus WNW

12.2 C

13.9 C

13.8 C

13.9 C

0 W/m

0.00 mm

05:10

13.8 C

1023.1 hpa

90 %

3.2 km/h aus 115

6.4 km/h aus WNW

12.2 C

13.9 C

13.8 C

13.9 C

0 W/m

0.00 mm

05:15

13.8 C

1023.1 hpa

90 %

0.0 km/h aus 117

3.2 km/h aus WNW

12.2 C

13.9 C

13.8 C

13.9 C

0 W/m

0.00 mm

05:20

13.8 C

1023.1 hpa

90 %

0.0 km/h aus 117

0.0 km/h aus ---

12.2 C

13.9 C

13.8 C

13.9 C

0 W/m

0.00 mm

05:25

13.8 C

1023.1 hpa

90 %

0.0 km/h aus 117

4.8 km/h aus WNW

12.2 C

13.9 C

13.8 C

13.9 C

0 W/m

0.00 mm

05:30

13.8 C

1023.2 hpa

90 %

1.6 km/h aus 114

6.4 km/h aus WNW

12.2 C

13.8 C

13.8 C

13.8 C

0 W/m

0.00 mm

05:35

13.8 C

1023.2 hpa

90 %

0.0 km/h aus 115

3.2 km/h aus WNW

12.2 C

13.8 C

13.8 C

13.8 C

0 W/m

0.00 mm

05:40

13.8 C

1023.2 hpa

90 %

1.6 km/h aus 117

4.8 km/h aus WNW

12.2 C

13.9 C

13.8 C

13.9 C

0 W/m

0.00 mm

05:45

13.8 C

1023.2 hpa

90 %

3.2 km/h aus 117

8.0 km/h aus W

12.2 C

13.9 C

13.8 C

13.9 C

0 W/m

0.00 mm

05:50

13.8 C

1023.2 hpa

90 %

0.0 km/h aus 116

3.2 km/h aus W

12.2 C

13.9 C

13.8 C

13.9 C

0 W/m

0.00 mm

05:55

13.8 C

1023.2 hpa

90 %

0.0 km/h aus 114

4.8 km/h aus W

12.2 C

13.9 C

13.8 C

13.9 C

0 W/m

0.00 mm

06:00

13.8 C

1023.2 hpa

90 %

0.0 km/h aus 116

3.2 km/h aus W

12.2 C

13.9 C

13.8 C

13.9 C

0 W/m

0.00 mm

06:05

13.9 C

1023.2 hpa

90 %

0.0 km/h aus 118

3.2 km/h aus W

12.3 C

13.9 C

13.9 C

13.9 C

0 W/m

0.00 mm

06:10

13.9 C

1023.2 hpa

90 %

0.0 km/h aus 117

0.0 km/h aus ---

12.3 C

13.9 C

13.9 C

13.9 C

0 W/m

0.00 mm

06:15

13.9 C

1023.3 hpa

90 %

0.0 km/h aus 116

3.2 km/h aus W

12.3 C

13.9 C

13.9 C

13.9 C

0 W/m

0.00 mm

06:20

13.9 C

1023.3 hpa

90 %

0.0 km/h aus 114

0.0 km/h aus ---

12.3 C

14.0 C

13.9 C

14.0 C

0 W/m

0.00 mm

06:25

13.9 C

1023.3 hpa

90 %

0.0 km/h aus 115

3.2 km/h aus W

12.3 C

14.0 C

13.9 C

14.0 C

0 W/m

0.00 mm

06:30

13.9 C

1023.2 hpa

90 %

0.0 km/h aus 117

0.0 km/h aus ---

12.3 C

14.0 C

13.9 C

14.0 C

0 W/m

0.00 mm

06:35

13.9 C

1023.2 hpa

90 %

0.0 km/h aus 117

0.0 km/h aus ---

12.3 C

14.0 C

13.9 C

14.0 C

0 W/m

0.00 mm

06:40

14.0 C

1023.2 hpa

90 %

0.0 km/h aus 116

0.0 km/h aus ---

12.4 C

14.1 C

14.0 C

14.1 C

0 W/m

0.00 mm

06:45

14.0 C

1023.3 hpa

90 %

0.0 km/h aus 115

0.0 km/h aus ---

12.4 C

14.1 C

14.0 C

14.1 C

3 W/m

0.00 mm

06:50

14.0 C

1023.3 hpa

90 %

0.0 km/h aus 116

0.0 km/h aus ---

12.4 C

14.1 C

14.0 C

14.1 C

5 W/m

0.00 mm

06:55

14.0 C

1023.3 hpa

90 %

0.0 km/h aus 116

0.0 km/h aus ---

12.4 C

14.1 C

14.0 C

14.1 C

7 W/m

0.00 mm

07:00

14.1 C

1023.5 hpa

90 %

0.0 km/h aus 117

1.6 km/h aus W

12.4 C

14.1 C

14.1 C

14.1 C

8 W/m

0.00 mm

07:05

14.1 C

1023.5 hpa

90 %

0.0 km/h aus 114

0.0 km/h aus ---

12.4 C

14.1 C

14.1 C

14.1 C

10 W/m

0.00 mm

07:10

14.1 C

1023.5 hpa

90 %

0.0 km/h aus 115

4.8 km/h aus W

12.4 C

14.1 C

14.1 C

14.1 C

11 W/m

0.00 mm

07:15

14.1 C

1023.6 hpa

90 %

0.0 km/h aus 117

1.6 km/h aus W

12.4 C

14.1 C

14.1 C

14.1 C

14 W/m

0.00 mm

07:20

14.1 C

1023.6 hpa

90 %

0.0 km/h aus 117

4.8 km/h aus W

12.4 C

14.1 C

14.1 C

14.1 C

18 W/m

0.00 mm

07:25

14.1 C

1023.6 hpa

90 %

1.6 km/h aus 117

4.8 km/h aus W

12.5 C

14.2 C

14.1 C

14.2 C

24 W/m

0.00 mm

07:30

14.1 C

1023.6 hpa

89 %

0.0 km/h aus 115

0.0 km/h aus ---

12.3 C

14.2 C

14.1 C

14.2 C

28 W/m

0.00 mm

07:35

14.1 C

1023.6 hpa

89 %

0.0 km/h aus 114

4.8 km/h aus W

12.3 C

14.2 C

14.1 C

14.2 C

30 W/m

0.00 mm

07:40

14.1 C

1023.6 hpa

89 %

0.0 km/h aus 117

0.0 km/h aus ---

12.3 C

14.2 C

14.1 C

14.2 C

32 W/m

0.00 mm

07:45

14.2 C

1023.7 hpa

89 %

0.0 km/h aus 116

0.0 km/h aus ---

12.4 C

14.2 C

14.2 C

14.2 C

35 W/m

0.00 mm

07:50

14.2 C

1023.7 hpa

89 %

0.0 km/h aus 117

3.2 km/h aus W

12.4 C

14.3 C

14.2 C

14.3 C

38 W/m

0.00 mm

07:55

14.2 C

1023.7 hpa

90 %

0.0 km/h aus 115

0.0 km/h aus ---

12.6 C

14.3 C

14.2 C

14.3 C

40 W/m

0.00 mm

08:00

14.3 C

1023.7 hpa

89 %

0.0 km/h aus 116

0.0 km/h aus ---

12.5 C

14.3 C

14.3 C

14.3 C

41 W/m

0.00 mm

08:05

14.3 C

1023.7 hpa

89 %

0.0 km/h aus 116

0.0 km/h aus ---

12.5 C

14.3 C

14.3 C

14.3 C

44 W/m

0.00 mm

08:10

14.3 C

1023.7 hpa

89 %

0.0 km/h aus 116

0.0 km/h aus ---

12.5 C

14.4 C

14.3 C

14.4 C

51 W/m

0.00 mm

08:15

14.3 C

1024.0 hpa

89 %

0.0 km/h aus 118

0.0 km/h aus ---

12.5 C

14.4 C

14.3 C

14.4 C

54 W/m

0.00 mm

08:20

14.4 C

1024.0 hpa

89 %

0.0 km/h aus 114

0.0 km/h aus ---

12.7 C

14.5 C

14.4 C

14.5 C

58 W/m

0.00 mm

08:25

14.5 C

1024.0 hpa

89 %

0.0 km/h aus 116

0.0 km/h aus ---

12.7 C

14.6 C

14.5 C

14.6 C

62 W/m

0.00 mm

08:30

14.6 C

1024.1 hpa

89 %

0.0 km/h aus 117

0.0 km/h aus ---

12.8 C

14.6 C

14.6 C

14.6 C

67 W/m

0.00 mm

08:35

14.6 C

1024.1 hpa

89 %

1.6 km/h aus 116

4.8 km/h aus W

12.8 C

14.7 C

14.6 C

14.7 C

75 W/m

0.00 mm

08:40

14.7 C

1024.1 hpa

88 %

3.2 km/h aus 116

8.0 km/h aus W

12.7 C

14.7 C

14.7 C

14.7 C

79 W/m

0.00 mm

08:45

14.7 C

1024.2 hpa

88 %

1.6 km/h aus 114

6.4 km/h aus W

12.8 C

14.8 C

14.7 C

14.8 C

88 W/m

0.00 mm

08:50

14.8 C

1024.2 hpa

88 %

0.0 km/h aus 117

1.6 km/h aus W

12.8 C

14.8 C

14.8 C

14.8 C

89 W/m

0.00 mm

08:55

14.9 C

1024.2 hpa

88 %

3.2 km/h aus 117

6.4 km/h aus W

12.9 C

14.9 C

14.9 C

14.9 C

94 W/m

0.00 mm

09:00

14.9 C

1024.1 hpa

88 %

0.0 km/h aus 116

4.8 km/h aus W

13.0 C

15.0 C

14.9 C

15.0 C

109 W/m

0.00 mm

09:05

15.0 C

1024.1 hpa

87 %

1.6 km/h aus 116

4.8 km/h aus W

12.9 C

15.1 C

15.0 C

15.1 C

121 W/m

0.00 mm

09:10

15.1 C

1024.1 hpa

87 %

0.0 km/h aus 115

3.2 km/h aus W

13.0 C

15.2 C

15.1 C

15.2 C

126 W/m

0.00 mm

09:15

15.2 C

1024.1 hpa

87 %

1.6 km/h aus 117

6.4 km/h aus W

13.0 C

15.2 C

15.2 C

15.2 C

134 W/m

0.00 mm

09:20

15.2 C

1024.1 hpa

86 %

3.2 km/h aus 118

8.0 km/h aus W

12.9 C

15.3 C

15.2 C

15.3 C

141 W/m

0.00 mm

09:25

15.2 C

1024.1 hpa

85 %

1.6 km/h aus 117

6.4 km/h aus W

12.7 C

15.2 C

15.2 C

15.2 C

143 W/m

0.00 mm

09:30

15.3 C

1024.2 hpa

83 %

1.6 km/h aus 115

6.4 km/h aus W

12.5 C

15.3 C

15.3 C

15.3 C

155 W/m

0.00 mm

09:35

15.6 C

1024.2 hpa

83 %

3.2 km/h aus 115

8.0 km/h aus W

12.7 C

15.6 C

15.6 C

15.6 C

166 W/m

0.00 mm

09:40

15.6 C

1024.2 hpa

82 %

3.2 km/h aus 117

6.4 km/h aus W

12.5 C

15.6 C

15.6 C

15.6 C

172 W/m

0.00 mm

09:45

15.7 C

1024.2 hpa

81 %

1.6 km/h aus 117

6.4 km/h aus W

12.5 C

15.7 C

15.7 C

15.7 C

189 W/m

0.00 mm

09:50

15.8 C

1024.2 hpa

80 %

3.2 km/h aus 116

6.4 km/h aus W

12.4 C

15.8 C

15.8 C

15.8 C

197 W/m

0.00 mm

09:55

15.9 C

1024.2 hpa

79 %

3.2 km/h aus 112

8.0 km/h aus W

12.3 C

15.9 C

15.9 C

15.9 C

207 W/m

0.00 mm

10:00

16.1 C

1024.5 hpa

79 %

3.2 km/h aus 115

8.0 km/h aus WSW

12.4 C

16.0 C

16.1 C

16.0 C

207 W/m

0.00 mm

10:05

16.2 C

1024.5 hpa

79 %

3.2 km/h aus 116

8.0 km/h aus WSW

12.5 C

16.2 C

16.2 C

16.2 C

213 W/m

0.00 mm

10:10

16.1 C

1024.5 hpa

78 %

1.6 km/h aus 117

6.4 km/h aus WSW

12.3 C

16.1 C

16.1 C

16.1 C

204 W/m

0.00 mm

10:15

16.1 C

1024.7 hpa

78 %

4.8 km/h aus 116

8.0 km/h aus WSW

12.3 C

16.1 C

16.1 C

16.1 C

197 W/m

0.00 mm

10:20

16.1 C

1024.7 hpa

78 %

3.2 km/h aus 114

8.0 km/h aus WNW

12.3 C

16.1 C

16.1 C

16.1 C

177 W/m

0.00 mm

10:25

16.1 C

1024.7 hpa

78 %

3.2 km/h aus 118

6.4 km/h aus WNW

12.3 C

16.1 C

16.1 C

16.1 C

154 W/m

0.00 mm

10:30

16.1 C

1024.7 hpa

78 %

3.2 km/h aus 117

6.4 km/h aus WSW

12.2 C

16.0 C

16.1 C

16.0 C

150 W/m

0.00 mm

10:35

16.1 C

1024.7 hpa

78 %

3.2 km/h aus 117

6.4 km/h aus W

12.2 C

16.0 C

16.1 C

16.0 C

161 W/m

0.00 mm

10:40

16.1 C

1024.7 hpa

77 %

3.2 km/h aus 115

6.4 km/h aus NW

12.0 C

15.9 C

16.1 C

15.9 C

180 W/m

0.00 mm

10:45

16.1 C

1024.7 hpa

78 %

0.0 km/h aus 115

4.8 km/h aus NW

12.3 C

16.1 C

16.1 C

16.1 C

204 W/m

0.00 mm

10:50

16.3 C

1024.7 hpa

78 %

1.6 km/h aus 116

8.0 km/h aus NNW

12.4 C

16.2 C

16.3 C

16.2 C

213 W/m

0.00 mm

10:55

16.4 C

1024.7 hpa

78 %

0.0 km/h aus 116

6.4 km/h aus NNW

12.6 C

16.4 C

16.4 C

16.4 C

230 W/m

0.00 mm

11:00

16.6 C

1024.7 hpa

76 %

0.0 km/h aus 115

4.8 km/h aus NW

12.3 C

16.5 C

16.6 C

16.5 C

233 W/m

0.00 mm

11:05

16.4 C

1024.7 hpa

77 %

3.2 km/h aus 114

8.0 km/h aus W

12.4 C

16.4 C

16.4 C

16.4 C

233 W/m

0.00 mm

11:10

16.6 C

1024.7 hpa

76 %

1.6 km/h aus 117

8.0 km/h aus W

12.3 C

16.5 C

16.6 C

16.5 C

261 W/m

0.00 mm

11:15

16.6 C

1024.8 hpa

76 %

1.6 km/h aus 116

6.4 km/h aus W

12.4 C

16.6 C

16.6 C

16.6 C

241 W/m

0.00 mm

11:20

16.6 C

1024.8 hpa

77 %

1.6 km/h aus 117

6.4 km/h aus W

12.6 C

16.6 C

16.6 C

16.6 C

197 W/m

0.00 mm

11:25

16.7 C

1024.8 hpa

77 %

1.6 km/h aus 115

4.8 km/h aus W

12.7 C

16.7 C

16.7 C

16.7 C

257 W/m

0.00 mm

11:30

16.9 C

1024.8 hpa

77 %

1.6 km/h aus 114

8.0 km/h aus W

12.9 C

16.9 C

16.9 C

16.9 C

286 W/m

0.00 mm

11:35

17.0 C

1024.8 hpa

75 %

1.6 km/h aus 117

8.0 km/h aus WNW

12.5 C

16.9 C

17.0 C

16.9 C

299 W/m

0.00 mm

11:40

17.2 C

1024.8 hpa

77 %

1.6 km/h aus 116

6.4 km/h aus WNW

13.1 C

17.2 C

17.2 C

17.2 C

309 W/m

0.00 mm

11:45

17.1 C

1024.7 hpa

74 %

3.2 km/h aus 116

8.0 km/h aus WSW

12.4 C

17.0 C

17.1 C

17.0 C

306 W/m

0.00 mm

11:50

17.1 C

1024.7 hpa

74 %

3.2 km/h aus 113

6.4 km/h aus W

12.4 C

17.0 C

17.1 C

17.0 C

335 W/m

0.00 mm

11:55

17.2 C

1024.7 hpa

74 %

1.6 km/h aus 115

6.4 km/h aus W

12.5 C

17.1 C

17.2 C

17.1 C

316 W/m

0.00 mm

12:00

17.2 C

1024.7 hpa

74 %

0.0 km/h aus 117

3.2 km/h aus W

12.5 C

17.2 C

17.2 C

17.2 C

330 W/m

0.00 mm

12:05

17.2 C

1024.7 hpa

74 %

1.6 km/h aus 117

8.0 km/h aus WSW

12.5 C

17.1 C

17.2 C

17.1 C

312 W/m

0.00 mm

12:10

17.4 C

1024.7 hpa

74 %

1.6 km/h aus 116

6.4 km/h aus WSW

12.8 C

17.4 C

17.4 C

17.4 C

309 W/m

0.00 mm

12:15

17.6 C

1024.8 hpa

74 %

0.0 km/h aus 115

4.8 km/h aus WSW

12.9 C

17.6 C

17.6 C

17.6 C

308 W/m

0.00 mm

12:20

17.6 C

1024.8 hpa

73 %

3.2 km/h aus 117

8.0 km/h aus W

12.7 C

17.6 C

17.6 C

17.6 C

329 W/m

0.00 mm

12:25

17.6 C

1024.8 hpa

73 %

3.2 km/h aus 115

8.0 km/h aus W

12.7 C

17.6 C

17.6 C

17.6 C

333 W/m

0.00 mm

12:30

17.8 C

1024.7 hpa

72 %

3.2 km/h aus 118

6.4 km/h aus W

12.7 C

17.7 C

17.8 C

17.7 C

423 W/m

0.00 mm

12:35

18.1 C

1024.7 hpa

72 %

1.6 km/h aus 114

9.7 km/h aus WSW

12.9 C

18.1 C

18.1 C

18.1 C

444 W/m

0.00 mm

12:40

17.9 C

1024.7 hpa

73 %

3.2 km/h aus 116

8.0 km/h aus WNW

13.0 C

17.9 C

17.9 C

17.9 C

427 W/m

0.00 mm

12:45

18.1 C

1024.7 hpa

71 %

4.8 km/h aus 117

9.7 km/h aus SW

12.8 C

18.1 C

18.1 C

18.1 C

431 W/m

0.00 mm

12:50

18.0 C

1024.7 hpa

72 %

0.0 km/h aus 117

6.4 km/h aus W

12.9 C

18.0 C

18.0 C

18.0 C

382 W/m

0.00 mm

12:55

18.0 C

1024.7 hpa

71 %

3.2 km/h aus 116

6.4 km/h aus W

12.7 C

17.9 C

18.0 C

17.9 C

351 W/m

0.00 mm

13:00

17.8 C

1024.7 hpa

72 %

1.6 km/h aus 114

6.4 km/h aus W

12.7 C

17.8 C

17.8 C

17.8 C

317 W/m

0.00 mm

13:05

17.7 C

1024.7 hpa

73 %

0.0 km/h aus 117

4.8 km/h aus W

12.8 C

17.6 C

17.7 C

17.6 C

325 W/m

0.00 mm

13:10

18.1 C

1024.7 hpa

73 %

1.6 km/h aus 115

6.4 km/h aus WNW

13.1 C

18.1 C

18.1 C

18.1 C

399 W/m

0.00 mm

13:15

18.2 C

1024.6 hpa

70 %

3.2 km/h aus 116

8.0 km/h aus W

12.7 C

18.2 C

18.2 C

18.2 C

355 W/m

0.00 mm

13:20

17.9 C

1024.6 hpa

70 %

0.0 km/h aus 114

0.0 km/h aus ---

12.3 C

17.8 C

17.9 C

17.8 C

473 W/m

0.00 mm

13:25

19.1 C

1024.6 hpa

73 %

0.0 km/h aus 117

4.8 km/h aus WNW

14.2 C

19.4 C

19.1 C

19.4 C

639 W/m

0.00 mm

13:30

19.9 C

1024.4 hpa

67 %

1.6 km/h aus 117

8.0 km/h aus NNW

13.6 C

20.1 C

19.9 C

20.1 C

626 W/m

0.00 mm

13:35

19.1 C

1024.4 hpa

68 %

3.2 km/h aus 117

8.0 km/h aus NW

13.1 C

19.2 C

19.1 C

19.2 C

294 W/m

0.00 mm

13:40

18.7 C

1024.4 hpa

70 %

3.2 km/h aus 114

6.4 km/h aus NW

13.1 C

18.8 C

18.7 C

18.8 C

297 W/m

0.00 mm

13:45

18.6 C

1024.4 hpa

71 %

1.6 km/h aus 114

4.8 km/h aus NW

13.2 C

18.6 C

18.6 C

18.6 C

243 W/m

0.00 mm

13:50

18.6 C

1024.4 hpa

70 %

3.2 km/h aus 117

6.4 km/h aus NW

13.0 C

18.6 C

18.6 C

18.6 C

393 W/m

0.00 mm

13:55

19.1 C

1024.4 hpa

67 %

3.2 km/h aus 117

9.7 km/h aus SW

12.8 C

19.1 C

19.1 C

19.1 C

530 W/m

0.00 mm

14:00

18.8 C

1024.4 hpa

68 %

1.6 km/h aus 115

6.4 km/h aus WSW

12.7 C

18.8 C

18.8 C

18.8 C

337 W/m

0.00 mm

14:05

19.6 C

1024.4 hpa

67 %

3.2 km/h aus 115

8.0 km/h aus WSW

13.3 C

19.7 C

19.6 C

19.7 C

597 W/m

0.00 mm

14:10

19.4 C

1024.4 hpa

64 %

1.6 km/h aus 117

8.0 km/h aus WNW

12.4 C

19.3 C

19.4 C

19.3 C

582 W/m

0.00 mm

14:15

19.2 C

1024.2 hpa

67 %

1.6 km/h aus 116

4.8 km/h aus W

12.9 C

19.3 C

19.2 C

19.3 C

551 W/m

0.00 mm

14:20

19.4 C

1024.2 hpa

65 %

4.8 km/h aus 115

9.7 km/h aus WSW

12.7 C

19.4 C

19.4 C

19.4 C

494 W/m

0.00 mm

14:25

18.9 C

1024.2 hpa

66 %

0.0 km/h aus 115

6.4 km/h aus WSW

12.4 C

18.9 C

18.9 C

18.9 C

357 W/m

0.00 mm

14:30

19.6 C

1024.2 hpa

67 %

3.2 km/h aus 117

9.7 km/h aus SW

13.3 C

19.7 C

19.6 C

19.7 C

602 W/m

0.00 mm

14:35

20.2 C

1024.2 hpa

67 %

4.8 km/h aus 117

9.7 km/h aus SSW

13.9 C

20.4 C

20.2 C

20.4 C

595 W/m

0.00 mm

14:40

20.3 C

1024.2 hpa

66 %

6.4 km/h aus 115

11.3 km/h aus S

13.7 C

20.3 C

20.3 C

20.3 C

592 W/m

0.00 mm

14:45

20.4 C

1024.1 hpa

65 %

3.2 km/h aus 115

11.3 km/h aus S

13.6 C

20.4 C

20.4 C

20.4 C

588 W/m

0.00 mm

14:50

20.2 C

1024.1 hpa

64 %

3.2 km/h aus 117

8.0 km/h aus WSW

13.1 C

20.2 C

20.2 C

20.2 C

319 W/m

0.00 mm

14:55

19.2 C

1024.1 hpa

64 %

0.0 km/h aus 116

6.4 km/h aus W

12.2 C

19.1 C

19.2 C

19.1 C

217 W/m

0.00 mm

15:00

19.9 C

1024.0 hpa

66 %

1.6 km/h aus 115

6.4 km/h aus W

13.3 C

20.0 C

19.9 C

20.0 C

594 W/m

0.00 mm

15:05

19.6 C

1024.0 hpa

64 %

1.6 km/h aus 114

4.8 km/h aus W

12.6 C

19.5 C

19.6 C

19.5 C

211 W/m

0.00 mm

15:10

19.3 C

1024.0 hpa

66 %

3.2 km/h aus 116

6.4 km/h aus W

12.8 C

19.3 C

19.3 C

19.3 C

187 W/m

0.00 mm

15:15

19.2 C

1023.8 hpa

65 %

0.0 km/h aus 116

1.6 km/h aus WNW

12.4 C

19.1 C

19.2 C

19.1 C

237 W/m

0.00 mm

15:20

19.9 C

1023.8 hpa

67 %

1.6 km/h aus 117

8.0 km/h aus NW

13.6 C

20.1 C

19.9 C

20.1 C

594 W/m

0.00 mm

15:25

20.0 C

1023.8 hpa

64 %

3.2 km/h aus 113

9.7 km/h aus WNW

13.0 C

20.1 C

20.0 C

20.1 C

258 W/m

0.00 mm

15:30

19.5 C

1023.9 hpa

65 %

1.6 km/h aus 116

6.4 km/h aus W

12.7 C

19.5 C

19.5 C

19.5 C

195 W/m

0.00 mm

15:35

19.2 C

1023.9 hpa

66 %

3.2 km/h aus 117

9.7 km/h aus NW

12.7 C

19.2 C

19.2 C

19.2 C

190 W/m

0.00 mm

15:40

19.8 C

1023.9 hpa

67 %

3.2 km/h aus 118

9.7 km/h aus WNW

13.5 C

20.0 C

19.8 C

20.0 C

575 W/m

0.00 mm

15:45

20.2 C

1023.8 hpa

66 %

1.6 km/h aus 114

4.8 km/h aus WNW

13.7 C

20.3 C

20.2 C

20.3 C

538 W/m

0.00 mm

15:50

20.2 C

1023.8 hpa

66 %

1.6 km/h aus 114

6.4 km/h aus W

13.7 C

20.3 C

20.2 C

20.3 C

539 W/m

0.00 mm

15:55

20.6 C

1023.8 hpa

63 %

4.8 km/h aus 117

8.0 km/h aus NW

13.3 C

20.4 C

20.6 C

20.4 C

539 W/m

0.00 mm

16:00

20.2 C

1023.7 hpa

64 %

0.0 km/h aus 117

4.8 km/h aus W

13.1 C

20.2 C

20.2 C

20.2 C

522 W/m

0.00 mm

16:05

20.4 C

1023.7 hpa

62 %

3.2 km/h aus 115

14.5 km/h aus WNW

12.9 C

20.3 C

20.4 C

20.3 C

518 W/m

0.00 mm

16:10

20.6 C

1023.7 hpa

63 %

3.2 km/h aus 116

8.0 km/h aus W

13.3 C

20.4 C

20.6 C

20.4 C

506 W/m

0.00 mm

16:15

20.1 C

1023.7 hpa

62 %

1.6 km/h aus 117

6.4 km/h aus W

12.6 C

20.0 C

20.1 C

20.0 C

507 W/m

0.00 mm

16:20

20.2 C

1023.7 hpa

63 %

1.6 km/h aus 116

12.9 km/h aus SW

12.9 C

20.2 C

20.2 C

20.2 C

512 W/m

0.00 mm

16:25

20.2 C

1023.7 hpa

62 %

3.2 km/h aus 115

8.0 km/h aus W

12.7 C

20.1 C

20.2 C

20.1 C

509 W/m

0.00 mm

16:30

20.0 C

1023.4 hpa

64 %

1.6 km/h aus 116

9.7 km/h aus W

13.0 C

20.1 C

20.0 C

20.1 C

192 W/m

0.00 mm

16:35

20.3 C

1023.4 hpa

65 %

3.2 km/h aus 117

8.0 km/h aus W

13.5 C

20.3 C

20.3 C

20.3 C

481 W/m

0.00 mm

16:40

20.6 C

1023.4 hpa

62 %

1.6 km/h aus 116

4.8 km/h aus W

13.0 C

20.3 C

20.6 C

20.3 C

466 W/m

0.00 mm

16:45

20.5 C

1023.3 hpa

63 %

1.6 km/h aus 114

6.4 km/h aus W

13.2 C

20.3 C

20.5 C

20.3 C

442 W/m

0.00 mm

16:50

20.6 C

1023.3 hpa

64 %

3.2 km/h aus 117

9.7 km/h aus NW

13.6 C

20.5 C

20.6 C

20.5 C

414 W/m

0.00 mm

16:55

20.5 C

1023.3 hpa

62 %

1.6 km/h aus 117

6.4 km/h aus W

13.0 C

20.3 C

20.5 C

20.3 C

416 W/m

0.00 mm

17:00

20.4 C

1023.3 hpa

63 %

1.6 km/h aus 117

8.0 km/h aus W

13.2 C

20.3 C

20.4 C

20.3 C

422 W/m

0.00 mm

17:05

20.8 C

1023.3 hpa

65 %

0.0 km/h aus 115

1.6 km/h aus W

14.0 C

20.7 C

20.8 C

20.7 C

416 W/m

0.00 mm

17:10

20.7 C

1023.3 hpa

64 %

1.6 km/h aus 116

6.4 km/h aus NW

13.6 C

20.6 C

20.7 C

20.6 C

348 W/m

0.00 mm

17:15

20.3 C

1023.3 hpa

65 %

3.2 km/h aus 116

6.4 km/h aus WNW

13.5 C

20.3 C

20.3 C

20.3 C

366 W/m

0.00 mm

17:20

20.2 C

1023.3 hpa

64 %

1.6 km/h aus 116

6.4 km/h aus NW

13.1 C

20.2 C

20.2 C

20.2 C

137 W/m

0.00 mm

17:25

19.6 C

1023.3 hpa

65 %

1.6 km/h aus 116

6.4 km/h aus NW

12.8 C

19.7 C

19.6 C

19.7 C

91 W/m

0.00 mm

17:30

19.6 C

1023.2 hpa

67 %

1.6 km/h aus 114

4.8 km/h aus WNW

13.3 C

19.7 C

19.6 C

19.7 C

282 W/m

0.00 mm

17:35

20.0 C

1023.2 hpa

64 %

1.6 km/h aus 117

6.4 km/h aus WNW

13.0 C

20.1 C

20.0 C

20.1 C

329 W/m

0.00 mm

17:40

20.2 C

1023.2 hpa

64 %

1.6 km/h aus 117

4.8 km/h aus WNW

13.2 C

20.2 C

20.2 C

20.2 C

264 W/m

0.00 mm

17:45

20.0 C

1023.2 hpa

64 %

0.0 km/h aus 118

3.2 km/h aus WNW

13.0 C

20.1 C

20.0 C

20.1 C

245 W/m

0.00 mm

17:50

20.1 C

1023.2 hpa

64 %

0.0 km/h aus 113

0.0 km/h aus ---

13.1 C

20.1 C

20.1 C

20.1 C

289 W/m

0.00 mm

17:55

20.1 C

1023.2 hpa

64 %

0.0 km/h aus 117

1.6 km/h aus WNW

13.1 C

20.1 C

20.1 C

20.1 C

290 W/m

0.00 mm

18:00

20.1 C

1023.1 hpa

63 %

0.0 km/h aus 116

3.2 km/h aus WNW

12.8 C

20.1 C

20.1 C

20.1 C

279 W/m

0.00 mm

18:05

19.9 C

1023.1 hpa

63 %

1.6 km/h aus 117

6.4 km/h aus NW

12.7 C

19.9 C

19.9 C

19.9 C

259 W/m

0.00 mm

18:10

20.0 C

1023.1 hpa

64 %

0.0 km/h aus 114

4.8 km/h aus WNW

13.0 C

20.1 C

20.0 C

20.1 C

241 W/m

0.00 mm

18:15

20.1 C

1023.1 hpa

64 %

1.6 km/h aus 116

8.0 km/h aus WNW

13.0 C

20.1 C

20.1 C

20.1 C

229 W/m

0.00 mm

18:20

19.9 C

1023.1 hpa

64 %

3.2 km/h aus 117

8.0 km/h aus NW

12.9 C

20.0 C

19.9 C

20.0 C

218 W/m

0.00 mm

18:25

20.0 C

1023.1 hpa

64 %

1.6 km/h aus 116

6.4 km/h aus WNW

13.0 C

20.1 C

20.0 C

20.1 C

196 W/m

0.00 mm

18:30

19.8 C

1023.2 hpa

67 %

1.6 km/h aus 115

6.4 km/h aus WNW

13.5 C

20.0 C

19.8 C

20.0 C

171 W/m

0.00 mm

18:35

19.6 C

1023.2 hpa

67 %

1.6 km/h aus 115

8.0 km/h aus NW

13.3 C

19.7 C

19.6 C

19.7 C

137 W/m

0.00 mm

18:40

19.5 C

1023.2 hpa

68 %

3.2 km/h aus 117

8.0 km/h aus NW

13.4 C

19.7 C

19.5 C

19.7 C

96 W/m

0.00 mm

18:45

19.4 C

1023.2 hpa

68 %

3.2 km/h aus 117

6.4 km/h aus WNW

13.3 C

19.5 C

19.4 C

19.5 C

77 W/m

0.00 mm

18:50

19.3 C

1023.2 hpa

69 %

1.6 km/h aus 118

6.4 km/h aus WNW

13.4 C

19.4 C

19.3 C

19.4 C

51 W/m

0.00 mm

18:55

19.2 C

1023.2 hpa

68 %

1.6 km/h aus 114

6.4 km/h aus NW

13.1 C

19.2 C

19.2 C

19.2 C

48 W/m

0.00 mm

19:00

19.1 C

1023.2 hpa

69 %

1.6 km/h aus 117

6.4 km/h aus NW

13.3 C

19.2 C

19.1 C

19.2 C

46 W/m

0.00 mm

19:05

19.1 C

1023.2 hpa

69 %

1.6 km/h aus 117

6.4 km/h aus WNW

13.3 C

19.2 C

19.1 C

19.2 C

40 W/m

0.00 mm

19:10

19.2 C

1023.2 hpa

69 %

0.0 km/h aus 117

4.8 km/h aus WNW

13.3 C

19.3 C

19.2 C

19.3 C

36 W/m

0.00 mm

19:15

19.2 C

1023.2 hpa

69 %

0.0 km/h aus 114

4.8 km/h aus WNW

13.3 C

19.3 C

19.2 C

19.3 C

33 W/m

0.00 mm

19:20

19.1 C

1023.2 hpa

69 %

0.0 km/h aus 116

4.8 km/h aus WNW

13.3 C

19.2 C

19.1 C

19.2 C

29 W/m

0.00 mm

19:25

19.1 C

1023.2 hpa

68 %

1.6 km/h aus 117

4.8 km/h aus WNW

13.0 C

19.1 C

19.1 C

19.1 C

27 W/m

0.00 mm

19:30

19.0 C

1023.3 hpa

69 %

1.6 km/h aus 117

4.8 km/h aus WNW

13.2 C

19.1 C

19.0 C

19.1 C

25 W/m

0.00 mm

19:35

18.9 C

1023.3 hpa

69 %

1.6 km/h aus 113

4.8 km/h aus WNW

13.1 C

19.0 C

18.9 C

19.0 C

22 W/m

0.00 mm

19:40

18.9 C

1023.3 hpa

69 %

0.0 km/h aus 115

3.2 km/h aus WNW

13.1 C

18.9 C

18.9 C

18.9 C

19 W/m

0.00 mm

19:45

18.8 C

1023.4 hpa

69 %

0.0 km/h aus 117

4.8 km/h aus WNW

13.0 C

18.8 C

18.8 C

18.8 C

16 W/m

0.00 mm

19:50

18.7 C

1023.4 hpa

69 %

3.2 km/h aus 116

6.4 km/h aus WNW

12.9 C

18.7 C

18.7 C

18.7 C

13 W/m

0.00 mm

19:55

18.6 C

1023.4 hpa

69 %

3.2 km/h aus 118

6.4 km/h aus WNW

12.8 C

18.6 C

18.6 C

18.6 C

10 W/m

0.00 mm

20:00

18.4 C

1023.4 hpa

69 %

1.6 km/h aus 114

4.8 km/h aus W

12.7 C

18.4 C

18.4 C

18.4 C

7 W/m

0.00 mm

20:05

18.3 C

1023.4 hpa

69 %

1.6 km/h aus 115

6.4 km/h aus W

12.5 C

18.2 C

18.3 C

18.2 C

5 W/m

0.00 mm

20:10

18.1 C

1023.4 hpa

70 %

1.6 km/h aus 117

3.2 km/h aus W

12.6 C

18.1 C

18.1 C

18.1 C

1 W/m

0.00 mm

20:15

18.0 C

1023.6 hpa

70 %

0.0 km/h aus 117

3.2 km/h aus W

12.4 C

17.9 C

18.0 C

17.9 C

0 W/m

0.00 mm

20:20

17.8 C

1023.6 hpa

70 %

0.0 km/h aus 116

1.6 km/h aus W

12.3 C

17.7 C

17.8 C

17.7 C

0 W/m

0.00 mm

20:25

17.7 C

1023.6 hpa

70 %

0.0 km/h aus 114

3.2 km/h aus W

12.1 C

17.6 C

17.7 C

17.6 C

0 W/m

0.00 mm

20:30

17.5 C

1023.7 hpa

70 %

0.0 km/h aus 116

1.6 km/h aus W

12.0 C

17.4 C

17.5 C

17.4 C

0 W/m

0.00 mm

20:35

17.3 C

1023.7 hpa

71 %

0.0 km/h aus 117

4.8 km/h aus W

12.0 C

17.2 C

17.3 C

17.2 C

0 W/m

0.00 mm

20:40

17.2 C

1023.7 hpa

72 %

3.2 km/h aus 117

8.0 km/h aus W

12.1 C

17.1 C

17.2 C

17.1 C

0 W/m

0.00 mm

20:45

17.1 C

1023.7 hpa

73 %

3.2 km/h aus 115

6.4 km/h aus W

12.2 C

16.9 C

17.1 C

16.9 C

0 W/m

0.00 mm

20:50

16.9 C

1023.7 hpa

74 %

1.6 km/h aus 115

8.0 km/h aus WSW

12.3 C

16.8 C

16.9 C

16.8 C

0 W/m

0.00 mm

20:55

16.8 C

1023.7 hpa

74 %

0.0 km/h aus 118

3.2 km/h aus WSW

12.2 C

16.7 C

16.8 C

16.7 C

0 W/m

0.00 mm

21:00

16.7 C

1023.7 hpa

74 %

0.0 km/h aus 117

3.2 km/h aus WSW

12.1 C

16.6 C

16.7 C

16.6 C

0 W/m

0.00 mm

21:05

16.6 C

1023.7 hpa

75 %

0.0 km/h aus 117

3.2 km/h aus WSW

12.2 C

16.5 C

16.6 C

16.5 C

0 W/m

0.00 mm

21:10

16.5 C

1023.7 hpa

75 %

0.0 km/h aus 114

0.0 km/h aus ---

12.1 C

16.4 C

16.5 C

16.4 C

0 W/m

0.00 mm

21:15

16.4 C

1023.8 hpa

75 %

0.0 km/h aus 115

1.6 km/h aus W

11.9 C

16.3 C

16.4 C

16.3 C

0 W/m

0.00 mm

21:20

16.3 C

1023.8 hpa

75 %

0.0 km/h aus 117

1.6 km/h aus WSW

11.8 C

16.1 C

16.3 C

16.1 C

0 W/m

0.00 mm

21:25

16.2 C

1023.8 hpa

76 %

0.0 km/h aus 117

3.2 km/h aus WSW

11.9 C

16.1 C

16.2 C

16.1 C

0 W/m

0.00 mm

21:30

16.1 C

1024.1 hpa

76 %

0.0 km/h aus 117

6.4 km/h aus W

11.8 C

15.9 C

16.1 C

15.9 C

0 W/m

0.00 mm

21:35

15.9 C

1024.1 hpa

76 %

0.0 km/h aus 113

0.0 km/h aus ---

11.7 C

15.7 C

15.9 C

15.7 C

0 W/m

0.00 mm

21:40

15.8 C

1024.1 hpa

77 %

0.0 km/h aus 116

0.0 km/h aus ---

11.8 C

15.7 C

15.8 C

15.7 C

0 W/m

0.00 mm

21:45

15.7 C

1024.2 hpa

78 %

0.0 km/h aus 115

0.0 km/h aus ---

11.8 C

15.6 C

15.7 C

15.6 C

0 W/m

0.00 mm

21:50

15.5 C

1024.2 hpa

78 %

0.0 km/h aus 116

0.0 km/h aus ---

11.7 C

15.4 C

15.5 C

15.4 C

0 W/m

0.00 mm

21:55

15.4 C

1024.2 hpa

78 %

1.6 km/h aus 117

6.4 km/h aus W

11.6 C

15.3 C

15.4 C

15.3 C

0 W/m

0.00 mm

22:00

15.3 C

1024.1 hpa

79 %

1.6 km/h aus 115

6.4 km/h aus W

11.7 C

15.2 C

15.3 C

15.2 C

0 W/m

0.00 mm

22:05

15.3 C

1024.1 hpa

80 %

0.0 km/h aus 116

4.8 km/h aus WNW

11.8 C

15.2 C

15.3 C

15.2 C

0 W/m

0.00 mm

22:10

15.2 C

1024.1 hpa

81 %

0.0 km/h aus 116

3.2 km/h aus W

12.0 C

15.2 C

15.2 C

15.2 C

0 W/m

0.00 mm

22:15

15.2 C

1024.2 hpa

81 %

0.0 km/h aus 117

1.6 km/h aus W

12.0 C

15.2 C

15.2 C

15.2 C

0 W/m

0.00 mm

22:20

15.2 C

1024.2 hpa

81 %

0.0 km/h aus 115

3.2 km/h aus W

11.9 C

15.1 C

15.2 C

15.1 C

0 W/m

0.00 mm

22:25

15.1 C

1024.2 hpa

82 %

0.0 km/h aus 114

4.8 km/h aus W

12.1 C

15.1 C

15.1 C

15.1 C

0 W/m

0.00 mm

22:30

15.1 C

1024.2 hpa

82 %

0.0 km/h aus 116

4.8 km/h aus W

12.1 C

15.1 C

15.1 C

15.1 C

0 W/m

0.00 mm

22:35

15.1 C

1024.2 hpa

82 %

0.0 km/h aus 116

1.6 km/h aus W

12.0 C

15.0 C

15.1 C

15.0 C

0 W/m

0.00 mm

22:40

15.0 C

1024.2 hpa

82 %

0.0 km/h aus 116

1.6 km/h aus W

12.0 C

14.9 C

15.0 C

14.9 C

0 W/m

0.00 mm

22:45

14.9 C

1024.2 hpa

82 %

0.0 km/h aus 116

4.8 km/h aus W

11.9 C

14.9 C

14.9 C

14.9 C

0 W/m

0.00 mm

22:50

14.9 C

1024.2 hpa

82 %

0.0 km/h aus 114

4.8 km/h aus WSW

11.9 C

14.9 C

14.9 C

14.9 C

0 W/m

0.00 mm

22:55

14.9 C

1024.2 hpa

83 %

0.0 km/h aus 116

0.0 km/h aus ---

12.0 C

14.8 C

14.9 C

14.8 C

0 W/m

0.00 mm

23:00

14.8 C

1024.2 hpa

83 %

0.0 km/h aus 117

3.2 km/h aus WSW

12.0 C

14.8 C

14.8 C

14.8 C

0 W/m

0.00 mm

23:05

14.8 C

1024.2 hpa

83 %

0.0 km/h aus 118

4.8 km/h aus W

11.9 C

14.7 C

14.8 C

14.7 C

0 W/m

0.00 mm

23:10

14.7 C

1024.2 hpa

82 %

0.0 km/h aus 116

4.8 km/h aus W

11.7 C

14.7 C

14.7 C

14.7 C

0 W/m

0.00 mm

23:15

14.7 C

1024.2 hpa

83 %

1.6 km/h aus 113

6.4 km/h aus W

11.8 C

14.6 C

14.7 C

14.6 C

0 W/m

0.00 mm

23:20

14.6 C

1024.2 hpa

83 %

0.0 km/h aus 116

4.8 km/h aus W

11.8 C

14.6 C

14.6 C

14.6 C

0 W/m

0.00 mm

23:25

14.6 C

1024.2 hpa

83 %

0.0 km/h aus 117

0.0 km/h aus ---

11.7 C

14.5 C

14.6 C

14.5 C

0 W/m

0.00 mm

23:30

14.4 C

1024.1 hpa

82 %

0.0 km/h aus 117

1.6 km/h aus W

11.4 C

14.3 C

14.4 C

14.3 C

0 W/m

0.00 mm

23:35

14.3 C

1024.1 hpa

82 %

0.0 km/h aus 115

0.0 km/h aus ---

11.3 C

14.2 C

14.3 C

14.2 C

0 W/m

0.00 mm

23:40

14.3 C

1024.1 hpa

82 %

0.0 km/h aus 115

0.0 km/h aus ---

11.2 C

14.2 C

14.3 C

14.2 C

0 W/m

0.00 mm

23:45

14.2 C

1024.2 hpa

82 %

0.0 km/h aus 115

1.6 km/h aus W

11.1 C

14.1 C

14.2 C

14.1 C

0 W/m

0.00 mm

23:50

14.1 C

1024.2 hpa

83 %

0.0 km/h aus 117

0.0 km/h aus ---

11.2 C

13.9 C

14.1 C

13.9 C

0 W/m

0.00 mm

23:55

13.9 C

1024.2 hpa

82 %

0.0 km/h aus 116

0.0 km/h aus ---

10.9 C

13.8 C

13.9 C

13.8 C

0 W/m

0.00 mm